Regional Weather Roundup
Issued by NWS

Home | Current Version | Previous Version | Graphics & Text | Print | Product List | Glossary On
Versions: 1 2 3 4 5 6 7 8 9 10 11 12 13 14 15 16 17 18 19 20 21 22 23 24 25 26 27 28 29 30 31 32 33 34 35 36 37 38 39 40 41 42 43 44 45 46 47 48 49 50
000
ASUS45 KBOU 020007
RWRCO

WEATHER ROUNDUP FOR COLORADO
NATIONAL WEATHER SERVICE DENVER/BOULDER CO
600 PM MDT MON SEP 01 2014

NOTE: "FAIR" INDICATES FEW OR NO CLOUDS BELOW 12000 FEET WITH NO
SIGNIFICANT WEATHER AND/OR OBSTRUCTIONS TO VISIBILITY.

COZ001>005-013-030-031-020100-
...NORTHWEST COLORADO...

CITY           SKY/WX    TMP DP  RH WIND       PRES   REMARKS
CRAIG          MOSUNNY   74  35  24 W15G22    30.12R
HAYDEN         SUNNY     72  30  21 W20       30.14R
MEEKER         SUNNY     75  30  19 W10G18    30.13S
MOUNT WERNER   NOT AVBL
STEAMBOAT SPGS SUNNY     69  32  25 W13       30.16R
WALDEN         MOSUNNY   61  30  31 SW17G23   30.22R
$$

COZ006>008-011-020100-
...WEST CENTRAL VALLEYS...

CITY           SKY/WX    TMP DP  RH WIND       PRES   REMARKS
GRAND JUNCTION SUNNY     83  32  16 NW7       29.99F
MONTROSE       SUNNY     83  36  18 N13       30.08R
EAGLE          MOSUNNY   75  34  22 SW17      30.13S
RIFLE          PTSUNNY   81  33  17 W15       30.04S
DELTA          SUNNY     87  29  12 NW14G21   30.02S
NUCLA          SUNNY     82  28  14 W13       30.11S
$$

COZ017>023-064>068-020100-
...SOUTHWEST COLORADO...

CITY           SKY/WX    TMP DP  RH WIND       PRES   REMARKS
DURANGO        SUNNY     82  29  14 W21G28    30.12S
CORTEZ         SUNNY     86  28  12 W13       30.07F
PAGOSA SPRINGS SUNNY     80  21  11 SW14G25   30.19R
TELLURIDE      SUNNY     70  25  18 W8        30.33R
WOLF CREEK PAS SUNNY     55  28  35 SW20G30   30.50S
$$

COZ009-010-012-014-032>034-037-058>063-020100-
...CENTRAL COLORADO...

CITY           SKY/WX    TMP DP  RH WIND       PRES   REMARKS
ASPEN          SUNNY     70  31  23 N12G21    30.19R
BUENA VISTA    SUNNY     74  19  12 W26G32    30.18R
COPPER MTN     MOSUNNY   54  27  35 W28G36    30.48S
BERTHOUD PASS  PTSUNNY   45  43  93 W22       30.50R
COTTONWOOD PAS SUNNY     68  14  12 W15G24    30.33R
GUNNISON       SUNNY     73  30  20 W13G24    30.21R
KREMMLING      SUNNY     72  21  15 NW14G23   30.18R
LEADVILLE      SUNNY     61  29  29 W13       30.33R
MONARCH PASS   SUNNY     55  27  33 W35G51    30.57R
SALIDA         SUNNY     79  28  15 W21G28    30.21R
SUNLIGHT       SUNNY     61  36  39 CALM      30.44R
WILKERSON PASS NOT AVBL
$$

COZ069>075-020100-
...SAN LUIS VALLEY/SANGRE DE CRISTO MOUNTAINS...

CITY           SKY/WX    TMP DP  RH WIND       PRES   REMARKS
ALAMOSA        MOSUNNY   79  31  17 W12       30.12R
LA VETA PASS   NOT AVBL
SAGUACHE       NOT AVBL
$$

COZ035-036-038>040-020100-
...NORTHERN COLORADO FRONT RANGE...

CITY           SKY/WX    TMP DP  RH WIND       PRES   REMARKS
DENVER INTL AP MOSUNNY   76  43  30 NE7       30.00R
DMNS CITY PARK   N/A     76  40  26 E6        29.99R
AURORA         MOSUNNY   77  40  25 SE5       30.03R
FRONT RANGE AP NOT AVBL
ERIE MUNI ARPT SUNNY     80  39  23 E7        29.98R
BOULDER MUN AP SUNNY     79  41  25 NE6       29.99R
CENTENNIAL     MOSUNNY   77  40  26 E7        30.03R
BROOMFIELD     NOT AVBL
FORT COLLINS   SUNNY     79  46  31 SE8       29.97S
LONGMONT       MOSUNNY   81  44  27 E8        30.00R
$$

COZ041-046-047-076>085-087-088-020100-
...PIKES PEAK/PALMER DIVIDE AND SOUTHERN FOOTHILLS...

CITY           SKY/WX    TMP DP  RH WIND       PRES   REMARKS
COLO. SPRINGS  MOSUNNY   76  45  33 E13       30.06R
A. F. ACADEMY  SUNNY     73  46  37 E9        30.07R
ELLICOTT       SUNNY     75  43  31 E14       30.05R
FALCON         MOSUNNY   72  44  36 E12       30.11R
FORT CARSON    MOSUNNY   77  47  33 E9        30.02R
LIMON          SUNNY     76  41  28 S9        30.02R
MONUMENT HILL  SUNNY     70  45  40 SE6       30.11R
TRINIDAD       SUNNY     89  35  14 NW3       29.95S
$$

COZ042>045-048>051-090-091-020100-
...NORTHEAST COLORADO...

CITY           SKY/WX    TMP DP  RH WIND       PRES   REMARKS
GREELEY ARPT   SUNNY     81  45  28 S6        29.98R
AKRON          SUNNY     78  41  26 MISG      29.98R
BURLINGTON     SUNNY     78  44  29 SE9       29.96S
WRAY             N/A     80  47  31 SE6       29.93S
STERLING       MOSUNNY   77  52  41 S7        29.92R
HOLYOKE        SUNNY     79  54  41 SE5       29.93R
FORT MORGAN    SUNNY     78  43  28 SE5       29.97S
$$

COZ086-089-092>099-020100-
...SOUTHEAST COLORADO...

CITY           SKY/WX    TMP DP  RH WIND       PRES   REMARKS
PUEBLO         SUNNY     88  44  21 E20       29.89R
LA JUNTA       SUNNY     87  44  22 SE13      29.89S
LAMAR          SUNNY     85  45  24 SE12      29.88S
SPRINGFIELD      N/A     81  50  33 SE14      29.94S
$$



USA.gov is the U.S. government's official web portal to all federal, state and local government web resources and services.